Regional Weather Roundup
Issued by NWS

Home | Current Version | Previous Version | Text Only | Print | Product List | Glossary On
Versions: 1 2 3 4 5 6 7 8 9 10 11 12 13 14 15 16 17 18 19 20 21 22 23 24 25 26 27
000
ASPQ40 PGUM 170612
RWRPQ
WEATHER ROUNDUP FOR THE MARIANAS AND MICRONESIA
NATIONAL WEATHER SERVICE TIYAN GU
400 PM CHST TUE OCT 17 2017

GUZ001>004-170700-
MARIANA ISLANDS-

CITY           SKY/WX    TMP DP  RH WIND       PRES   REMARKS
GUAM AIRPORT   LGT RAIN  81  79  94 SW6       29.65F FOG
ANDERSEN AFB   NOT AVBL
ROTA AIRPORT   CLOUDY    81  77  89 S12       29.65S
TINIAN AP      PTSUNNY   82  77  83 SE8       29.65R HX  91
SAIPAN AP      MOSUNNY   82  81  94 SE10      29.66S HX  95

$$

PMZ161-170700-
REPUBLIC OF PALAU-

CITY           SKY/WX    TMP DP  RH WIND       PRES   REMARKS
KOROR AP       SHOWER    77  73  88 SW14G24   29.54F
KOROR WSO      SHOWER    79  75  89 W23G35    29.56F

$$

PMZ171>174-170700-
FEDERATED STATES OF MICRONESIA-

CITY           SKY/WX    TMP DP  RH WIND       PRES   REMARKS
YAP AIRPORT    LGT RAIN  77  75  94 S15G24    29.61F
CHUUK AP       CLOUDY    88  81  79 VRB3      29.67R HX 105
POHNPEI AP     NOT AVBL
POHNPEI WSO    CLOUDY    82  77  83 S3        29.71R HX  91
KOSRAE AP      NOT AVBL

$$

PMZ181-170700-
REPUBLIC OF THE MARSHALL ISLANDS-

CITY           SKY/WX    TMP DP  RH WIND       PRES   REMARKS
KWAJALEIN AP   NOT AVBL
MAJURO AP      NOT AVBL
MAJURO WSO     MOCLDY    82  73  74 CALM      29.68S

$$





USA.gov is the U.S. government's official web portal to all federal, state and local government web resources and services.